Weather History for Apalachicola, FL

Change the Weather History Date:

Saturday, December 29, 2012

  Actual Average Record
Temperature  
Mean Temperature 54 °F 53 °F  
Max Temperature 69 °F 63 °F 75 °F (1946)
Min Temperature 38 °F 43 °F 28 °F (2010)
Degree Days  
Heating Degree Days 11    
Month to date heating degree days 210  
Since 1 July heating degree days 413  
Cooling Degree Days 0    
Month to date cooling degree days 12  
Year to date cooling degree days 2770  
Growing Degree Days 4 (Base 50)    
Moisture  
Dew Point 52 °F    
Average Humidity 72    
Maximum Humidity 93    
Minimum Humidity 51    
Precipitation  
Precipitation 0.36 in 0.11 in 1.86 in (2013)
Month to date precipitation 1.83 3.09  
Year to date precipitation 57.46 57.48  
Sea Level Pressure  
Sea Level Pressure 29.96 in    
Wind  
Wind Speed 13 mph (WNW)    
Max Wind Speed 22 mph    
Max Gust Speed 28 mph    
Visibility 9 miles    
Events Rain    
T = Trace of Precipitation, MM = Missing Value Source: NWS Daily Summary

Daily Weather History Graph

Daily Weather History Graph

Search for Another Location

Airport:

Trip Planner

Search our weather history database for the weather conditions in past years. The results will help you decide how hot, cold, wet, or windy it might be!

Date:

Astronomy

Dec. 29, 2012 Rise Set
Actual Time 7:34 AM EST 5:50 PM EST
Civil Twilight 7:08 AM EST 6:16 PM EST
Nautical Twilight 6:38 AM EST 6:46 PM EST
Astronomical Twilight 6:09 AM EST 7:15 PM EST
Moon 7:14 PM EST (12/29) 8:14 AM EST (12/29)
Length of Visible Light 11h 08m
Length of Day
10h 15m
Full, 98% of the Moon is Illuminated
Dec 29
Full
Jan 4
Last Quarter
Jan 11
New
Jan 18
First Quarter
Jan 26
Full

Hourly Weather History & Observations

Time (EST) Temp. Windchill Dew Point Humidity Pressure Visibility Wind Dir Wind Speed Gust Speed Precip Events Conditions
12:29 AM 64.4 °F - 62.6 °F 94% 29.80 in 2.5 mi SSE 12.7 mph - 0.03 in Rain Heavy Rain
12:51 AM 66.2 °F - 64.4 °F 94% 29.78 in 5.0 mi SSE 11.5 mph - 0.17 in Rain Light Rain
12:53 AM 66.0 °F - 64.0 °F 93% 29.78 in 5.0 mi South 15.0 mph - 0.17 in Rain Light Rain
1:15 AM 64.4 °F - 64.4 °F 100% 29.78 in 2.0 mi SSW 13.8 mph - 0.05 in Rain Rain
1:32 AM 66.2 °F - 64.4 °F 94% 29.77 in 3.0 mi SSW 15.0 mph 21.9 mph 0.10 in Rain Rain
1:53 AM 66.0 °F - 64.9 °F 96% 29.77 in 3.0 mi SSW 13.8 mph 25.3 mph 0.15 in Rain Rain
2:23 AM 66.2 °F - 64.4 °F 94% 29.77 in 6.0 mi SSW 15.0 mph 21.9 mph 0.03 in Rain Light Rain
2:31 AM 66.2 °F - 64.4 °F 94% 29.77 in 7.0 mi SW 18.4 mph 25.3 mph 0.03 in Rain Light Rain
2:53 AM 66.9 °F - 64.9 °F 93% 29.77 in 7.0 mi SW 18.4 mph 25.3 mph 0.04 in Rain Light Rain
3:53 AM 69.1 °F - 64.9 °F 87% 29.78 in 10.0 mi West 16.1 mph - 0.00 in   Overcast
4:01 AM 69.8 °F - 64.4 °F 83% 29.79 in 10.0 mi West 17.3 mph 24.2 mph N/A   Overcast
4:06 AM 69.8 °F - 64.4 °F 83% 29.79 in 7.0 mi WNW 17.3 mph 24.2 mph N/A   Overcast
4:21 AM 68.0 °F - 62.6 °F 83% 29.79 in 10.0 mi WNW 13.8 mph 23.0 mph 0.00 in   Overcast
4:30 AM 66.2 °F - 62.6 °F 88% 29.79 in 10.0 mi NW 16.1 mph 21.9 mph 0.00 in   Overcast
4:53 AM 66.0 °F - 62.1 °F 87% 29.81 in 10.0 mi WNW 15.0 mph - 0.00 in   Overcast
5:53 AM 64.9 °F - 61.0 °F 87% 29.86 in 10.0 mi WNW 15.0 mph 23.0 mph N/A   Mostly Cloudy
6:10 AM 64.4 °F - 60.8 °F 88% 29.87 in 10.0 mi WNW 12.7 mph - N/A   Scattered Clouds
6:53 AM 63.0 °F - 57.9 °F 84% 29.90 in 10.0 mi WNW 12.7 mph - N/A   Partly Cloudy
7:34 AM 60.8 °F - 55.4 °F 82% 29.94 in 10.0 mi WNW 12.7 mph 21.9 mph N/A   Mostly Cloudy
7:46 AM 59.0 °F - 55.4 °F 88% 29.95 in 10.0 mi WNW 13.8 mph 23.0 mph N/A   Mostly Cloudy
7:53 AM 59.0 °F - 55.0 °F 87% 29.95 in 10.0 mi WNW 15.0 mph - N/A   Overcast
8:20 AM 57.2 °F - 51.8 °F 82% 29.97 in 10.0 mi NW 20.7 mph 27.6 mph N/A   Mostly Cloudy
8:27 AM 57.2 °F - 50.0 °F 77% 29.97 in 10.0 mi NW 15.0 mph 27.6 mph N/A   Scattered Clouds
8:53 AM 55.0 °F - 48.9 °F 80% 30.00 in 10.0 mi NW 13.8 mph 23.0 mph N/A   Clear
9:53 AM 55.0 °F - 46.0 °F 72% 30.03 in 10.0 mi NNW 11.5 mph - N/A   Clear
10:53 AM 55.0 °F - 44.1 °F 67% 30.05 in 10.0 mi NNW 13.8 mph 23.0 mph N/A   Clear
11:30 AM 57.2 °F - 44.6 °F 63% 30.06 in 10.0 mi NNW 12.7 mph - N/A   Mostly Cloudy
11:50 AM 57.2 °F - 44.6 °F 63% 30.05 in 10.0 mi North 13.8 mph - N/A   Scattered Clouds
11:53 AM 57.0 °F - 44.1 °F 62% 30.05 in 10.0 mi North 11.5 mph - N/A   Partly Cloudy
12:53 PM 57.9 °F - 43.0 °F 58% 30.04 in 10.0 mi NNW 11.5 mph - N/A   Clear
1:53 PM 57.9 °F - 42.1 °F 56% 30.03 in 10.0 mi NW 9.2 mph - N/A   Clear
2:53 PM 59.0 °F - 41.0 °F 51% 30.03 in 10.0 mi NW 15.0 mph 20.7 mph N/A   Clear
3:53 PM 57.0 °F - 39.0 °F 51% 30.06 in 10.0 mi NW 13.8 mph 19.6 mph N/A   Clear
4:53 PM 53.1 °F - 37.9 °F 57% 30.10 in 10.0 mi NNW 16.1 mph 20.7 mph N/A   Clear
5:53 PM 48.9 °F - 37.9 °F 66% 30.13 in 10.0 mi NNW 9.2 mph - N/A   Clear
6:53 PM 46.0 °F 40.2 °F 36.0 °F 68% 30.17 in 10.0 mi NNW 12.7 mph - N/A   Clear
7:53 PM 44.1 °F 39.5 °F 36.0 °F 73% 30.20 in 10.0 mi NNW 8.1 mph - N/A   Clear
8:53 PM 44.1 °F 37.7 °F 34.0 °F 68% 30.24 in 10.0 mi NNW 12.7 mph - N/A   Clear
9:53 PM 42.1 °F 35.2 °F 32.0 °F 67% 30.25 in 10.0 mi NNW 12.7 mph 19.6 mph N/A   Clear
10:53 PM 39.9 °F 33.4 °F 30.0 °F 68% 30.29 in 10.0 mi NNW 10.4 mph - N/A   Clear
11:53 PM 37.9 °F 32.7 °F 28.9 °F 70% 30.30 in 10.0 mi NNW 6.9 mph - N/A   Clear